CCA6117 ZUGY-ZSSS

Flight info

Callsign CCA6117
Flight time 1h 48m
Altitude 39100
Route AVBOB1A AVBOB W586 TRN W183 HUY A581 WHA R343 PK
Aircraft A346/H-SDE2E3FGHIJ3J4J5M1RWXY/LB1D1

Departure

Time 2026-05-08 06:50
Airport Guiyang Longdongbao International Airport (ZUGY)

Arrival

Time 2026-05-08 08:38
Airport Shanghai Hongqiao International Airport (ZSSS)
Time Latitude Longitude Altitude Speed Heading
2026-05-08 06:26 26.54678 106.79947 3749 ft 0 kts 279°
2026-05-08 06:37 26.54677 106.79952 3749 ft 4 kts 269°
2026-05-08 06:37 26.54675 106.79972 3749 ft 4 kts 277°
2026-05-08 06:37 26.54672 106.79996 3749 ft 4 kts 263°
2026-05-08 06:38 26.54674 106.80005 3749 ft 4 kts 232°
2026-05-08 06:38 26.54688 106.80014 3749 ft 4 kts 195°
2026-05-08 06:38 26.54707 106.80019 3749 ft 0 kts 189°
2026-05-08 06:42 26.54706 106.80019 3749 ft 1 kts 189°
2026-05-08 06:42 26.54693 106.80016 3749 ft 3 kts 189°
2026-05-08 06:42 26.54611 106.80000 3749 ft 16 kts 189°
2026-05-08 06:42 26.54497 106.79978 3749 ft 18 kts 189°
2026-05-08 06:43 26.54370 106.79954 3750 ft 19 kts 189°
2026-05-08 06:43 26.54235 106.79927 3750 ft 21 kts 190°
2026-05-08 06:43 26.54086 106.79898 3750 ft 22 kts 189°
2026-05-08 06:43 26.53929 106.79867 3750 ft 23 kts 189°
2026-05-08 06:44 26.53769 106.79836 3751 ft 24 kts 190°
2026-05-08 06:44 26.53603 106.79804 3751 ft 24 kts 190°
2026-05-08 06:44 26.53433 106.79770 3751 ft 25 kts 190°
2026-05-08 06:44 26.53257 106.79737 3752 ft 26 kts 190°
2026-05-08 06:45 26.53079 106.79703 3752 ft 26 kts 189°
2026-05-08 06:45 26.52897 106.79667 3753 ft 27 kts 190°
2026-05-08 06:45 26.52714 106.79622 3753 ft 27 kts 200°
2026-05-08 06:45 26.52537 106.79596 3769 ft 25 kts 162°
2026-05-08 06:46 26.52449 106.79658 3760 ft 14 kts 126°
2026-05-08 06:46 26.52421 106.79765 3761 ft 15 kts 100°
2026-05-08 06:46 26.52403 106.79892 3753 ft 18 kts 98°
2026-05-08 06:46 26.52378 106.80036 3751 ft 14 kts 99°
2026-05-08 06:47 26.52374 106.80060 3750 ft 0 kts 99°
2026-05-08 06:48 26.52373 106.80065 3750 ft 8 kts 99°
2026-05-08 06:49 26.52380 106.80176 3750 ft 16 kts 50°
2026-05-08 06:49 26.52484 106.80225 3749 ft 18 kts 11°
2026-05-08 06:49 26.52810 106.80292 3752 ft 78 kts 10°
2026-05-08 06:49 26.53541 106.80433 3747 ft 133 kts 10°
2026-05-08 06:50 26.54613 106.80642 3775 ft 175 kts 11°
2026-05-08 06:50 26.55857 106.80875 4174 ft 186 kts 11°
2026-05-08 06:50 26.57136 106.81128 4894 ft 186 kts 13°
2026-05-08 06:50 26.58408 106.81388 5595 ft 186 kts 12°
2026-05-08 06:51 26.59725 106.81658 5998 ft 200 kts 12°
2026-05-08 06:51 26.61148 106.81941 6459 ft 213 kts 12°
2026-05-08 06:51 26.62622 106.82235 7022 ft 217 kts 11°
2026-05-08 06:51 26.64130 106.82536 7593 ft 221 kts 10°
2026-05-08 06:52 26.65657 106.82862 8162 ft 226 kts 14°
2026-05-08 06:52 26.67023 106.83773 8693 ft 238 kts 45°
2026-05-08 06:52 26.67769 106.85428 9219 ft 249 kts 79°
2026-05-08 06:52 26.67578 106.87343 9829 ft 252 kts 112°
2026-05-08 06:53 26.66863 106.89151 10430 ft 254 kts 117°
2026-05-08 06:53 26.66099 106.90955 10973 ft 258 kts 117°
2026-05-08 06:53 26.65326 106.92786 11550 ft 262 kts 117°
2026-05-08 06:53 26.64555 106.94648 12136 ft 266 kts 117°
2026-05-08 06:54 26.63761 106.96589 12518 ft 283 kts 117°
2026-05-08 06:54 26.62935 106.98625 13098 ft 291 kts 117°
2026-05-08 06:54 26.62097 107.00698 13774 ft 294 kts 117°
2026-05-08 06:54 26.61243 107.02817 14388 ft 299 kts 117°
2026-05-08 06:55 26.60383 107.04949 14973 ft 302 kts 117°
2026-05-08 06:55 26.59776 107.07240 15395 ft 317 kts 95°
2026-05-08 06:55 26.60008 107.09745 15670 ft 333 kts 71°
2026-05-08 06:55 26.60874 107.12211 15986 ft 349 kts 64°
2026-05-08 06:56 26.61906 107.14739 16276 ft 365 kts 64°
2026-05-08 06:56 26.62957 107.17395 16551 ft 382 kts 65°
2026-05-08 06:56 26.64007 107.20206 16833 ft 397 kts 66°
2026-05-08 06:56 26.65041 107.23096 17110 ft 413 kts 67°
2026-05-08 06:57 26.66106 107.26142 17353 ft 427 kts 67°
2026-05-08 06:57 26.67197 107.29304 17615 ft 442 kts 68°
2026-05-08 06:57 26.68314 107.32560 17910 ft 453 kts 68°
2026-05-08 06:57 26.69451 107.35883 18435 ft 459 kts 68°
2026-05-08 06:58 26.70598 107.39235 18916 ft 464 kts 68°
2026-05-08 06:58 26.71755 107.42624 19392 ft 467 kts 68°
2026-05-08 06:58 26.72920 107.46046 19894 ft 471 kts 68°
2026-05-08 06:58 26.74097 107.49494 20355 ft 476 kts 68°
2026-05-08 06:59 26.75285 107.52978 20811 ft 481 kts 67°
2026-05-08 06:59 26.76485 107.56495 21228 ft 485 kts 66°
2026-05-08 06:59 26.77857 107.59969 21627 ft 489 kts 61°
2026-05-08 06:59 26.79518 107.63309 22072 ft 491 kts 55°
2026-05-08 07:00 26.81440 107.66476 22521 ft 493 kts 50°
2026-05-08 07:00 26.83484 107.69588 22950 ft 497 kts 49°
2026-05-08 07:00 26.85565 107.72702 23366 ft 501 kts 49°
2026-05-08 07:00 26.87663 107.75843 23786 ft 505 kts 49°
2026-05-08 07:01 26.89745 107.78979 24160 ft 509 kts 49°
2026-05-08 07:01 26.91858 107.82176 24536 ft 512 kts 49°
2026-05-08 07:01 26.93984 107.85400 24930 ft 514 kts 50°
2026-05-08 07:01 26.96108 107.88635 25322 ft 516 kts 50°
2026-05-08 07:02 26.98241 107.91890 25697 ft 519 kts 50°
2026-05-08 07:02 27.00383 107.95159 26042 ft 523 kts 49°
2026-05-08 07:02 27.02544 107.98460 26392 ft 526 kts 49°
2026-05-08 07:02 27.04714 108.01777 26737 ft 529 kts 49°
2026-05-08 07:03 27.06903 108.05125 27051 ft 533 kts 49°
2026-05-08 07:03 27.09102 108.08490 27393 ft 536 kts 49°
2026-05-08 07:03 27.11315 108.11880 27709 ft 539 kts 49°
2026-05-08 07:03 27.13535 108.15285 28039 ft 542 kts 49°
2026-05-08 07:04 27.15764 108.18707 28443 ft 542 kts 49°
2026-05-08 07:04 27.17988 108.22124 28951 ft 541 kts 49°
2026-05-08 07:04 27.20207 108.25540 29462 ft 540 kts 49°
2026-05-08 07:04 27.22420 108.28950 29953 ft 540 kts 49°
2026-05-08 07:05 27.24635 108.32363 30379 ft 540 kts 49°
2026-05-08 07:05 27.26850 108.35779 30761 ft 540 kts 49°
2026-05-08 07:05 27.29067 108.39195 31126 ft 540 kts 49°
2026-05-08 07:05 27.31280 108.42613 31543 ft 539 kts 49°
2026-05-08 07:06 27.33487 108.46024 31978 ft 538 kts 49°
2026-05-08 07:06 27.35686 108.49426 32394 ft 537 kts 49°
2026-05-08 07:06 27.37888 108.52838 32798 ft 537 kts 49°
2026-05-08 07:06 27.40087 108.56248 33233 ft 537 kts 49°
2026-05-08 07:07 27.42277 108.59650 33589 ft 537 kts 49°
2026-05-08 07:07 27.44475 108.63060 33928 ft 538 kts 49°
2026-05-08 07:07 27.46678 108.66481 34287 ft 539 kts 49°
2026-05-08 07:07 27.48878 108.69901 34636 ft 538 kts 49°
2026-05-08 07:08 27.51042 108.73265 35007 ft 537 kts 49°
2026-05-08 07:08 27.53233 108.76676 35365 ft 536 kts 49°
2026-05-08 07:08 27.55419 108.80081 35720 ft 535 kts 49°
2026-05-08 07:08 27.57602 108.83485 36080 ft 533 kts 49°
2026-05-08 07:09 27.59775 108.86877 36433 ft 533 kts 49°
2026-05-08 07:09 27.61944 108.90265 36753 ft 532 kts 49°
2026-05-08 07:09 27.64108 108.93650 37119 ft 531 kts 49°
2026-05-08 07:09 27.66273 108.97037 37389 ft 531 kts 49°
2026-05-08 07:10 27.68433 109.00419 37640 ft 532 kts 49°
2026-05-08 07:10 27.70602 109.03816 37861 ft 533 kts 49°
2026-05-08 07:10 27.72773 109.07220 38087 ft 534 kts 49°
2026-05-08 07:10 27.74944 109.10627 38333 ft 535 kts 49°
2026-05-08 07:11 27.77120 109.14046 38616 ft 535 kts 49°
2026-05-08 07:11 27.79297 109.17469 38863 ft 535 kts 49°
2026-05-08 07:11 27.81511 109.20846 39004 ft 533 kts 45°
2026-05-08 07:11 27.84017 109.23907 39146 ft 527 kts 36°
2026-05-08 07:12 27.86820 109.26532 39294 ft 520 kts 28°
2026-05-08 07:12 27.89864 109.28696 39291 ft 512 kts 19°
2026-05-08 07:12 27.96381 109.31531 39293 ft 493 kts
2026-05-08 07:13 28.03066 109.33014 39302 ft 489 kts
2026-05-08 07:13 28.09783 109.34409 39304 ft 490 kts
2026-05-08 07:14 28.16486 109.35855 39312 ft 490 kts
2026-05-08 07:14 28.23139 109.37312 39310 ft 490 kts
2026-05-08 07:15 28.29826 109.38780 39303 ft 489 kts
2026-05-08 07:15 28.36518 109.40253 39298 ft 490 kts
2026-05-08 07:16 28.43210 109.41732 39321 ft 490 kts
2026-05-08 07:16 28.49913 109.43610 39305 ft 512 kts 12°
2026-05-08 07:17 28.53182 109.45400 39305 ft 529 kts 22°
2026-05-08 07:17 28.56233 109.47843 39302 ft 545 kts 33°
2026-05-08 07:17 28.58956 109.50920 39300 ft 559 kts 44°
2026-05-08 07:17 28.61227 109.54574 39306 ft 570 kts 55°
2026-05-08 07:18 28.64356 109.62975 39316 ft 579 kts 67°
2026-05-08 07:18 28.67173 109.71604 39312 ft 580 kts 64°
2026-05-08 07:19 28.70221 109.80119 39312 ft 580 kts 64°
2026-05-08 07:19 28.73293 109.88620 39307 ft 579 kts 64°
2026-05-08 07:20 28.76346 109.97132 39308 ft 580 kts 64°
2026-05-08 07:20 28.79388 110.05663 39308 ft 580 kts 64°
2026-05-08 07:21 28.82400 110.14142 39294 ft 580 kts 64°
2026-05-08 07:21 28.85428 110.22689 39322 ft 581 kts 64°
2026-05-08 07:22 28.88457 110.31248 39305 ft 582 kts 64°
2026-05-08 07:22 28.91484 110.39821 39313 ft 582 kts 64°
2026-05-08 07:23 28.94506 110.48406 39291 ft 581 kts 64°
2026-05-08 07:23 28.97516 110.56979 39309 ft 581 kts 64°
2026-05-08 07:24 29.00520 110.65558 39303 ft 581 kts 64°
2026-05-08 07:24 29.03528 110.74160 39319 ft 582 kts 64°
2026-05-08 07:25 29.06576 110.82751 39303 ft 583 kts 64°
2026-05-08 07:26 29.10641 110.94210 39296 ft 583 kts 64°
2026-05-08 07:26 29.13678 111.02818 39288 ft 583 kts 64°
2026-05-08 07:27 29.16719 111.11463 39298 ft 583 kts 64°
2026-05-08 07:27 29.19654 111.19811 39288 ft 583 kts 64°
2026-05-08 07:28 29.22675 111.28445 39316 ft 584 kts 64°
2026-05-08 07:28 29.25711 111.37138 39297 ft 586 kts 64°
2026-05-08 07:29 29.28737 111.45819 39296 ft 586 kts 64°
2026-05-08 07:29 29.31756 111.54509 39294 ft 586 kts 64°
2026-05-08 07:30 29.34940 111.63110 39287 ft 583 kts 59°
2026-05-08 07:30 29.38876 111.71179 39290 ft 576 kts 51°
2026-05-08 07:31 29.43284 111.78856 39288 ft 575 kts 50°
2026-05-08 07:31 29.47717 111.86504 39285 ft 575 kts 50°
2026-05-08 07:32 29.52086 111.94127 39289 ft 575 kts 50°
2026-05-08 07:32 29.56465 112.01816 39288 ft 575 kts 51°
2026-05-08 07:33 29.60845 112.09525 39286 ft 575 kts 51°
2026-05-08 07:33 29.65225 112.17251 39290 ft 576 kts 50°
2026-05-08 07:34 29.69603 112.24984 39281 ft 577 kts 51°
2026-05-08 07:34 29.73982 112.32736 39283 ft 577 kts 51°
2026-05-08 07:35 29.78350 112.40511 39286 ft 577 kts 51°
2026-05-08 07:35 29.82701 112.48290 39306 ft 577 kts 51°
2026-05-08 07:36 29.87053 112.56083 39291 ft 578 kts 51°
2026-05-08 07:36 29.91407 112.63891 39290 ft 578 kts 51°
2026-05-08 07:37 29.95756 112.71706 39288 ft 578 kts 51°
2026-05-08 07:37 30.00067 112.79470 39283 ft 578 kts 51°
2026-05-08 07:38 30.04410 112.87312 39294 ft 579 kts 51°
2026-05-08 07:38 30.08750 112.95154 39286 ft 579 kts 51°
2026-05-08 07:39 30.13085 113.03005 39284 ft 579 kts 51°
2026-05-08 07:39 30.17416 113.10869 39280 ft 579 kts 51°
2026-05-08 07:40 30.21744 113.18743 39305 ft 579 kts 50°
2026-05-08 07:40 30.26130 113.26583 39283 ft 579 kts 50°
2026-05-08 07:41 30.30533 113.34404 39279 ft 579 kts 50°
2026-05-08 07:41 30.34931 113.42251 39275 ft 579 kts 50°
2026-05-08 07:42 30.39313 113.50100 39285 ft 579 kts 50°
2026-05-08 07:42 30.43697 113.57962 39290 ft 581 kts 50°
2026-05-08 07:43 30.48053 113.65794 39285 ft 581 kts 50°
2026-05-08 07:43 30.52441 113.73703 39281 ft 581 kts 50°
2026-05-08 07:44 30.56815 113.81606 39280 ft 582 kts 50°
2026-05-08 07:44 30.61194 113.89523 39300 ft 582 kts 50°
2026-05-08 07:45 30.65568 113.97440 39278 ft 582 kts 50°
2026-05-08 07:45 30.69941 114.05366 39270 ft 582 kts 50°
2026-05-08 07:46 30.74309 114.13307 39272 ft 582 kts 50°
2026-05-08 07:46 30.78360 114.21523 39270 ft 589 kts 57°
2026-05-08 07:47 30.81606 114.30329 39275 ft 594 kts 64°
2026-05-08 07:47 30.84454 114.39396 39265 ft 596 kts 65°
2026-05-08 07:48 30.87322 114.48455 39271 ft 595 kts 64°
2026-05-08 07:48 30.90238 114.57408 39266 ft 595 kts 64°
2026-05-08 07:49 30.93175 114.66428 39264 ft 595 kts 64°
2026-05-08 07:49 30.96095 114.75458 39288 ft 595 kts 64°
2026-05-08 07:50 30.99003 114.84493 39275 ft 595 kts 64°
2026-05-08 07:50 31.01909 114.93545 39267 ft 595 kts 64°
2026-05-08 07:51 31.04807 115.02587 39271 ft 595 kts 64°
2026-05-08 07:51 31.07703 115.11654 39273 ft 595 kts 64°
2026-05-08 07:52 31.10590 115.20726 39304 ft 595 kts 64°
2026-05-08 07:52 31.13462 115.29795 39284 ft 596 kts 64°
2026-05-08 07:53 31.16395 115.38873 39268 ft 596 kts 64°
2026-05-08 07:53 31.19333 115.47916 39272 ft 594 kts 64°
2026-05-08 07:54 31.22256 115.56965 39271 ft 594 kts 64°
2026-05-08 07:54 31.25168 115.66025 39276 ft 595 kts 64°
2026-05-08 07:55 31.28080 115.75119 39271 ft 595 kts 64°
2026-05-08 07:55 31.30957 115.84127 39286 ft 595 kts 64°
2026-05-08 07:56 31.33876 115.93212 39288 ft 594 kts 64°
2026-05-08 07:56 31.36837 116.02262 39289 ft 595 kts 63°
2026-05-08 07:57 31.39793 116.11312 39280 ft 595 kts 64°
2026-05-08 07:57 31.42735 116.20378 39298 ft 594 kts 64°
2026-05-08 07:58 31.45664 116.29444 39286 ft 594 kts 64°
2026-05-08 07:58 31.48586 116.38513 39276 ft 594 kts 64°
2026-05-08 07:59 31.51502 116.47581 39278 ft 594 kts 64°
2026-05-08 07:59 31.54421 116.56688 39269 ft 594 kts 64°
2026-05-08 08:00 31.57331 116.65789 39294 ft 593 kts 64°
2026-05-08 08:00 31.60224 116.74868 39286 ft 593 kts 64°
2026-05-08 08:01 31.63107 116.83942 39273 ft 593 kts 64°
2026-05-08 08:01 31.65992 116.93058 39278 ft 594 kts 64°
2026-05-08 08:02 31.68867 117.02161 39272 ft 594 kts 64°
2026-05-08 08:02 31.71696 117.11279 39284 ft 593 kts 65°
2026-05-08 08:03 31.74436 117.20452 39266 ft 595 kts 68°
2026-05-08 08:03 31.76289 117.29992 39272 ft 601 kts 79°
2026-05-08 08:04 31.76861 117.39762 39274 ft 604 kts 90°
2026-05-08 08:04 31.76305 117.49645 39266 ft 605 kts 95°
2026-05-08 08:05 31.75514 117.59517 39272 ft 606 kts 95°
2026-05-08 08:05 31.74777 117.69389 39274 ft 606 kts 94°
2026-05-08 08:06 31.74074 117.79261 39271 ft 605 kts 94°
2026-05-08 08:06 31.73371 117.89134 39274 ft 606 kts 94°
2026-05-08 08:07 31.72656 117.99013 39306 ft 605 kts 95°
2026-05-08 08:07 31.71932 118.08862 39260 ft 604 kts 95°
2026-05-08 08:08 31.71233 118.18703 39274 ft 604 kts 94°
2026-05-08 08:08 31.70557 118.28556 39275 ft 604 kts 94°
2026-05-08 08:09 31.69868 118.38406 39270 ft 604 kts 94°
2026-05-08 08:09 31.69166 118.48239 39273 ft 604 kts 94°
2026-05-08 08:10 31.68461 118.58004 39275 ft 603 kts 94°
2026-05-08 08:10 31.67743 118.67843 39264 ft 603 kts 94°
2026-05-08 08:11 31.67022 118.77613 38573 ft 592 kts 95°
2026-05-08 08:11 31.66666 118.82392 37619 ft 584 kts 95°
2026-05-08 08:11 31.66312 118.87131 36478 ft 580 kts 95°
2026-05-08 08:11 31.65958 118.91829 35419 ft 573 kts 95°
2026-05-08 08:12 31.65631 118.96154 34789 ft 560 kts 95°
2026-05-08 08:12 31.65289 119.00647 34054 ft 547 kts 95°
2026-05-08 08:12 31.64958 119.05099 32583 ft 547 kts 94°
2026-05-08 08:12 31.64704 119.09573 31081 ft 549 kts 93°
2026-05-08 08:13 31.64497 119.14011 30344 ft 534 kts 93°
2026-05-08 08:13 31.64310 119.18346 29919 ft 531 kts 92°
2026-05-08 08:13 31.64127 119.22695 29332 ft 533 kts 92°
2026-05-08 08:13 31.63941 119.27039 28625 ft 533 kts 93°
2026-05-08 08:14 31.63813 119.29926 28149 ft 533 kts 93°
2026-05-08 08:14 31.63615 119.34266 27465 ft 532 kts 93°
2026-05-08 08:14 31.63416 119.38575 27005 ft 524 kts 94°
2026-05-08 08:14 31.63218 119.42825 26579 ft 517 kts 94°
2026-05-08 08:15 31.63019 119.47032 26056 ft 513 kts 94°
2026-05-08 08:15 31.62820 119.51205 25566 ft 509 kts 94°
2026-05-08 08:15 31.62620 119.55343 25035 ft 505 kts 94°
2026-05-08 08:15 31.62419 119.59451 24557 ft 501 kts 94°
2026-05-08 08:16 31.62220 119.63521 24102 ft 497 kts 94°
2026-05-08 08:16 31.62022 119.67566 23639 ft 493 kts 94°
2026-05-08 08:16 31.61835 119.71577 23130 ft 489 kts 94°
2026-05-08 08:16 31.61655 119.75540 22670 ft 483 kts 93°
2026-05-08 08:17 31.61476 119.79466 22150 ft 479 kts 93°
2026-05-08 08:17 31.61298 119.83354 21673 ft 474 kts 93°
2026-05-08 08:17 31.61118 119.87205 21232 ft 469 kts 93°
2026-05-08 08:17 31.60941 119.91000 20794 ft 463 kts 93°
2026-05-08 08:18 31.60764 119.94761 20374 ft 458 kts 92°
2026-05-08 08:18 31.60588 119.98476 19945 ft 453 kts 92°
2026-05-08 08:18 31.60412 120.02150 19516 ft 448 kts 92°
2026-05-08 08:18 31.60239 120.05735 19102 ft 444 kts 92°
2026-05-08 08:19 31.60065 120.09335 18668 ft 439 kts 92°
2026-05-08 08:19 31.59892 120.12911 18265 ft 438 kts 92°
2026-05-08 08:19 31.59719 120.16495 18171 ft 440 kts 92°
2026-05-08 08:19 31.59542 120.20086 18172 ft 441 kts 92°
2026-05-08 08:20 31.59362 120.23726 18162 ft 441 kts 92°
2026-05-08 08:20 31.59185 120.27276 18165 ft 441 kts 92°
2026-05-08 08:20 31.58863 120.30853 18160 ft 441 kts 98°
2026-05-08 08:20 31.58208 120.34380 18160 ft 442 kts 105°
2026-05-08 08:21 31.57271 120.37816 18162 ft 442 kts 109°
2026-05-08 08:21 31.56254 120.41215 18169 ft 442 kts 109°
2026-05-08 08:21 31.55219 120.44616 18172 ft 442 kts 109°
2026-05-08 08:21 31.54188 120.48014 18165 ft 442 kts 109°
2026-05-08 08:22 31.53162 120.51414 18173 ft 442 kts 109°
2026-05-08 08:22 31.52139 120.54815 18163 ft 442 kts 109°
2026-05-08 08:22 31.51118 120.58218 18169 ft 442 kts 109°
2026-05-08 08:22 31.50097 120.61622 18171 ft 442 kts 109°
2026-05-08 08:23 31.49077 120.65026 18167 ft 442 kts 109°
2026-05-08 08:23 31.48063 120.68402 18163 ft 431 kts 109°
2026-05-08 08:23 31.47089 120.71645 18164 ft 413 kts 109°
2026-05-08 08:23 31.46146 120.74780 18167 ft 396 kts 109°
2026-05-08 08:24 31.45249 120.77758 18162 ft 380 kts 109°
2026-05-08 08:24 31.44386 120.80621 18161 ft 364 kts 109°
2026-05-08 08:24 31.43557 120.83370 18161 ft 354 kts 109°
2026-05-08 08:24 31.42737 120.86087 18169 ft 353 kts 109°
2026-05-08 08:25 31.41915 120.88806 18176 ft 353 kts 109°
2026-05-08 08:25 31.41089 120.91535 18171 ft 353 kts 109°
2026-05-08 08:25 31.40279 120.94212 18177 ft 353 kts 109°
2026-05-08 08:25 31.39444 120.96968 18175 ft 354 kts 109°
2026-05-08 08:26 31.38631 120.99640 18108 ft 351 kts 109°
2026-05-08 08:26 31.37819 121.02309 17524 ft 343 kts 109°
2026-05-08 08:26 31.37034 121.04888 17141 ft 330 kts 109°
2026-05-08 08:26 31.36264 121.07413 16658 ft 320 kts 109°
2026-05-08 08:27 31.35521 121.09850 15849 ft 324 kts 109°
2026-05-08 08:27 31.34755 121.12351 15009 ft 327 kts 109°
2026-05-08 08:27 31.33974 121.14866 14190 ft 329 kts 109°
2026-05-08 08:27 31.33188 121.17389 13305 ft 330 kts 109°
2026-05-08 08:28 31.32374 121.19912 12205 ft 334 kts 115°
2026-05-08 08:28 31.30956 121.22081 10991 ft 342 kts 144°
2026-05-08 08:28 31.28819 121.23175 10176 ft 334 kts 171°
2026-05-08 08:28 31.26510 121.23135 9307 ft 328 kts 186°
2026-05-08 08:29 31.24249 121.22871 8393 ft 324 kts 184°
2026-05-08 08:29 31.22005 121.22760 7481 ft 322 kts 179°
2026-05-08 08:29 31.19794 121.22784 6633 ft 317 kts 177°
2026-05-08 08:29 31.17606 121.22875 5792 ft 312 kts 175°
2026-05-08 08:30 31.15460 121.22986 5024 ft 304 kts 175°
2026-05-08 08:30 31.13362 121.23103 4265 ft 297 kts 174°
2026-05-08 08:30 31.09547 121.23323 3850 ft 252 kts 175°
2026-05-08 08:31 31.07890 121.23415 3702 ft 232 kts 175°
2026-05-08 08:31 31.06317 121.23502 3674 ft 215 kts 175°
2026-05-08 08:31 31.04895 121.23579 3586 ft 200 kts 175°
2026-05-08 08:31 31.03566 121.23652 3444 ft 182 kts 174°
2026-05-08 08:32 31.02421 121.23997 3313 ft 161 kts 147°
2026-05-08 08:32 31.01628 121.24850 3196 ft 154 kts 120°
2026-05-08 08:32 31.01253 121.26010 3056 ft 154 kts 95°
2026-05-08 08:32 31.01249 121.27259 2921 ft 155 kts 87°
2026-05-08 08:33 31.01305 121.28517 2766 ft 155 kts 86°
2026-05-08 08:33 31.01365 121.29769 2607 ft 154 kts 86°
2026-05-08 08:33 31.01422 121.31020 2435 ft 154 kts 86°
2026-05-08 08:33 31.01476 121.32268 2280 ft 154 kts 86°
2026-05-08 08:34 31.01645 121.33497 2069 ft 153 kts 59°
2026-05-08 08:34 31.02465 121.34247 1872 ft 154 kts 19°
2026-05-08 08:34 31.03514 121.34442 1823 ft 153 kts
2026-05-08 08:34 31.04575 121.34453 1821 ft 152 kts
2026-05-08 08:35 31.05644 121.34408 1816 ft 152 kts 360°
2026-05-08 08:35 31.06701 121.34344 1816 ft 152 kts
2026-05-08 08:35 31.07757 121.34281 1813 ft 152 kts 360°
2026-05-08 08:35 31.08816 121.34219 1823 ft 152 kts
2026-05-08 08:36 31.09877 121.34161 1708 ft 152 kts
2026-05-08 08:36 31.10940 121.34104 1491 ft 152 kts
2026-05-08 08:36 31.11980 121.34049 1299 ft 151 kts
2026-05-08 08:36 31.13029 121.33991 1089 ft 151 kts
2026-05-08 08:37 31.14077 121.33934 881 ft 151 kts
2026-05-08 08:37 31.15125 121.33877 682 ft 151 kts
2026-05-08 08:37 31.16173 121.33820 484 ft 150 kts
2026-05-08 08:37 31.17215 121.33764 277 ft 150 kts
2026-05-08 08:38 31.18259 121.33710 87 ft 149 kts 359°
2026-05-08 08:38 31.19218 121.33661 29 ft 112 kts 358°
2026-05-08 08:38 31.19790 121.33631 28 ft 66 kts 358°
2026-05-08 08:38 31.20137 121.33609 29 ft 43 kts 351°
2026-05-08 08:39 31.20358 121.33517 28 ft 13 kts 330°
2026-05-08 08:39 31.20364 121.33513 28 ft 0 kts 329°
2026-05-08 08:40 31.20365 121.33512 28 ft 2 kts 329°
2026-05-08 08:41 31.20475 121.33435 28 ft 23 kts 321°
2026-05-08 08:41 31.20519 121.33248 28 ft 25 kts 271°
2026-05-08 08:41 31.20509 121.33037 28 ft 25 kts 267°
2026-05-08 08:41 31.20420 121.32941 28 ft 21 kts 180°
2026-05-08 08:42 31.20263 121.32947 28 ft 24 kts 176°
2026-05-08 08:42 31.20087 121.32959 28 ft 26 kts 177°
2026-05-08 08:42 31.20025 121.32961 28 ft 2 kts 178°
2026-05-08 08:42 31.19861 121.32969 27 ft 30 kts 177°
2026-05-08 08:43 31.19739 121.32934 27 ft 18 kts 243°
2026-05-08 08:43 31.19722 121.32823 27 ft 8 kts 262°
2026-05-08 08:43 31.19746 121.32773 27 ft 7 kts 323°
2026-05-08 08:43 31.19758 121.32769 27 ft 0 kts 353°
2026-05-08 08:44 31.19766 121.32767 27 ft 3 kts 349°
2026-05-08 08:44 31.19795 121.32761 27 ft 5 kts 352°
2026-05-08 08:44 31.19800 121.32760 27 ft 0 kts 353°
2026-05-08 08:45 31.19799 121.32685 27 ft 0 kts 357°